OK2ARM-6 Weather Reports


time (UTC)temp
C
wind
direction
speed
KPH
gust
KPH
rain 1hr
cm
rain 24hr
cm
rain mn
cm
humidity
%
barometer
mb
20260905195041 16 0.0 0.0 0.00 0.00 0.00 100 1022.7
20260905194041 16 0.0 0.0 0.00 0.00 0.00 100 1022.5
20260905193041 17 0.0 0.0 0.00 0.00 0.00 100 1022.4
20260905192041 17 0.0 0.0 0.00 0.00 0.00 100 1022.4
20260905185817 18 0.0 0.0 0.00 0.00 0.00 100 1022.3
20260905184817 18 0.0 0.0 0.00 0.00 0.00 100 1022.1
20260905183817 18 0.0 0.0 0.00 0.00 0.00 100 1021.8
20260905182817 18 0.0 0.0 0.00 0.00 0.00 100 1021.7
20260905181817 18 0.0 0.0 0.00 0.00 0.00 100 1021.4
20260905174330 19 0.0 0.0 0.00 0.00 0.00 100 1020.9
20260905173330 19 0.0 0.0 0.00 0.00 0.00 100 1020.8
20260905171106 20 0.0 0.0 0.00 0.00 0.00 100 1020.6
20260905170107 20 0.0 0.0 0.00 0.00 0.00 100 1020.5
20260905163843 20 0.0 0.0 0.00 0.00 0.00 100 1020.3
20260905162843 21 0.0 0.0 0.00 0.00 0.00 100 1020.3
20260905161843 21 0.0 0.0 0.00 0.00 0.00 100 1020.3
20260905160843 21 0.0 0.0 0.00 0.00 0.00 100 1020.0
20260905155843 22 0.0 0.0 0.00 0.00 0.00 100 1020.0
20260905153619 22 0.0 0.0 0.00 0.00 0.00 100 1019.9
20260905152620 21 0.0 0.0 0.00 0.00 0.00 100 1020.1
20260905151619 22 0.0 0.0 0.00 0.00 0.00 100 1020.0
20260905150619 22 0.0 0.0 0.00 0.00 0.00 100 1020.0
20260905145619 23 0.0 0.0 0.00 0.00 0.00 100 1019.9
20260905144619 23 0.0 0.0 0.00 0.00 0.00 100 1020.0
20260905143619 23 0.0 0.0 0.00 0.00 0.00 100 1019.9
20260905142619 22 0.0 0.0 0.00 0.00 0.00 100 1020.1
20260905141619 22 0.0 0.0 0.00 0.00 0.00 100 1020.1
20260905140619 22 0.0 0.0 0.00 0.00 0.00 100 1020.2
20260905135619 21 0.0 0.0 0.00 0.00 0.00 100 1020.4
20260905133355 22 0.0 0.0 0.00 0.00 0.00 100 1020.4
20260905131132 22 0.0 0.0 0.00 0.00 0.00 100 1020.4
20260905130132 21 0.0 0.0 0.00 0.00 0.00 100 1020.4
20260905125132 22 0.0 0.0 0.00 0.00 0.00 100 1020.5
20260905124132 22 0.0 0.0 0.00 0.00 0.00 100 1020.4
20260905123131 23 0.0 0.0 0.00 0.00 0.00 100 1020.4
20260905120908 22 0.0 0.0 0.00 0.00 0.00 100 1020.5
20260905114648 21 0.0 0.0 0.00 0.00 0.00 100 1020.6
20260905113645 20 0.0 0.0 0.00 0.00 0.00 100 1020.7
20260905112645 21 0.0 0.0 0.00 0.00 0.00 100 1020.7
20260905111644 21 0.0 0.0 0.00 0.00 0.00 100 1020.6
20260905105421 20 0.0 0.0 0.00 0.00 0.00 100 1020.5
20260905104421 20 0.0 0.0 0.00 0.00 0.00 100 1020.3
20260905102157 19 0.0 0.0 0.00 0.00 0.00 100 1020.6
20260905095934 20 0.0 0.0 0.00 0.00 0.00 100 1020.7
20260905093706 18 0.0 0.0 0.00 0.00 0.00 100 1020.8
20260905091443 18 0.0 0.0 0.00 0.00 0.00 100 1020.8
20260905090443 18 0.0 0.0 0.00 0.00 0.00 100 1020.8
20260905082955 16 0.0 0.0 0.00 0.00 0.00 17 1020.7
20260905081955 15 0.0 0.0 0.00 0.00 0.00 15 1020.9
20260905080955 15 0.0 0.0 0.00 0.00 0.00 17 1020.6
20260905075955 15 0.0 0.0 0.00 0.00 0.00 18 1020.4
20260905074955 15 0.0 0.0 0.00 0.00 0.00 21 1020.2
20260905073955 15 0.0 0.0 0.00 0.00 0.00 26 1020.1
20260905072955 14 0.0 0.0 0.00 0.00 0.00 30 1019.8
20260905071955 14 0.0 0.0 0.00 0.00 0.00 37 1019.6
20260905070955 14 0.0 0.0 0.00 0.00 0.00 36 1019.2
20260905065955 14 0.0 0.0 0.00 0.00 0.00 39 1019.5
20260905064955 13 0.0 0.0 0.00 0.00 0.00 44 1019.7
20260905063955 13 0.0 0.0 0.00 0.00 0.00 52 1019.6
20260905062955 13 0.0 0.0 0.00 0.00 0.00 65 1019.8
20260905061955 13 0.0 0.0 0.00 0.00 0.00 65 1019.6
20260905060955 13 0.0 0.0 0.00 0.00 0.00 54 1019.7
20260905055955 13 0.0 0.0 0.00 0.00 0.00 39 1019.4
20260905052506 13 0.0 0.0 0.00 0.00 0.00 19 1019.9
20260905050242 14 0.0 0.0 0.00 0.00 0.00 28 1019.1
20260905045242 14 0.0 0.0 0.00 0.00 0.00 32 1019.1
20260905044242 14 0.0 0.0 0.00 0.00 0.00 31 1019.0
20260905043242 14 0.0 0.0 0.00 0.00 0.00 34 1018.8
20260905042242 14 0.0 0.0 0.00 0.00 0.00 32 1018.9
20260905041241 14 0.0 0.0 0.00 0.00 0.00 24 1018.5
20260905040242 15 0.0 0.0 0.00 0.00 0.00 21 1018.2
20260905035241 15 0.0 0.0 0.00 0.00 0.00 16 1018.1
20260905034242 15 0.0 0.0 0.00 0.00 0.00 16 1018.1
20260905033242 15 0.0 0.0 0.00 0.00 0.00 13 1018.1
20260905032242 15 0.0 0.0 0.00 0.00 0.00 11 1017.5
20260905030018 16 0.0 0.0 0.00 0.00 0.00 8 1018.0
20260905025018 16 0.0 0.0 0.00 0.00 0.00 100 1017.8
20260905024018 17 0.0 0.0 0.00 0.00 0.00 100 1017.4
20260905023018 17 0.0 0.0 0.00 0.00 0.00 100 1016.9
20260905022018 17 0.0 0.0 0.00 0.00 0.00 100 1016.7
20260905021018 17 0.0 0.0 0.00 0.00 0.00 100 1016.9
20260905020018 17 0.0 0.0 0.00 0.00 0.00 100 1016.9
20260905015018 17 0.0 0.0 0.00 0.00 0.00 100 1016.4
20260905012753 18 0.0 0.0 0.00 0.00 0.00 100 1016.5
20260905011753 18 0.0 0.0 0.00 0.00 0.00 100 1016.6
20260905010753 18 0.0 0.0 0.00 0.00 0.00 100 1016.4
20260905005753 18 0.0 0.0 0.00 0.00 0.00 100 1016.5
20260905004754 18 0.0 0.0 0.00 0.00 0.00 100 1016.3
20260905003754 19 0.0 0.0 0.00 0.00 0.00 100 1016.2
20260905002754 20 0.0 0.0 0.00 0.00 0.00 100 1015.3
20260905001754 19 0.0 0.0 0.00 0.00 0.00 100 1014.7
20260905000754 16 0.0 0.0 0.00 0.00 0.00 100 1013.9
20260904235754 17 0.0 0.0 0.00 0.00 0.00 100 1013.6
20260904234753 16 0.0 0.0 0.00 0.00 0.00 100 1013.7
20260904233753 16 0.0 0.0 0.00 0.00 0.00 100 1013.6
20260904232753 17 0.0 0.0 0.00 0.00 0.00 100 1013.6
20260904231754 17 0.0 0.0 0.00 0.00 0.00 100 1013.6
20260904225530 17 0.0 0.0 0.00 0.00 0.00 100 1013.4
20260904224530 17 0.0 0.0 0.00 0.00 0.00 100 1013.4
20260904223529 17 0.0 0.0 0.00 0.00 0.00 100 1013.4
20260904222530 17 0.0 0.0 0.00 0.00 0.00 100 1013.5
20260904221530 17 0.0 0.0 0.00 0.00 0.00 100 1013.6
20260904220530 17 0.0 0.0 0.00 0.00 0.00 100 1013.4
20260904213043 17 0.0 0.0 0.00 0.00 0.00 100 1013.3
20260904210819 18 0.0 0.0 0.00 0.00 0.00 100 1013.5
20260904205819 18 0.0 0.0 0.00 0.00 0.00 100 1013.4
20260904201109 20 0.0 0.0 0.00 0.00 0.00 100 1013.5
20260904200109 20 0.0 0.0 0.00 0.00 0.00 100 1013.6